Location: Newark
(34.6283°N, 36.0776°E)
Time: 13:15:32
(UTC+00:00)

Tiros 1 despin weight - Pass Details

Date: 23 September 2019
Orbit: 593 x 643 km, 48.2° (Epoch: 19 October)

Event Time Altitude Azimuth Distance (km) Brightness Sun altitude
Rises 08:06:35 0° 231° (SW) 2,906 ? 50.5°
Reaches altitude 10° 08:08:55 10° 231° (SW) 1,994 ? 50.7°
Maximum altitude 08:13:31 90° 215° (SW) 624 ? 51.2°
Drops below altitude 10° 08:18:03 10° 53° (NE) 1,970 ? 51.7°
Sets 08:20:21 0° 53° (NE) 2,868 ? 51.9°
